Location: *
(50.9167°S, 179.4000°W)
Time: 21:04:33
(UTC+00:00)

COSMOS 2428 - Pass Details

Date: 27 June 2024
Orbit: 843 x 857 km, 70.9° (Epoch: 17 July)

Event Time Altitude Azimuth Distance (km) Brightness Sun altitude
Exits shadow 19:16:46 - 208° (SSW) 3,207 5.2 -6.8°
Reaches altitude 10° 19:18:39 10° 203° (SSW) 2,520 4.7 -6.5°
Maximum altitude 19:24:16 48° 128° (SE) 1,112 3.6 -5.8°
Drops below altitude 10° 19:29:48 10° 54° (NE) 2,487 7.1 -5.0°
Sets 19:32:19 0° 48° (NE) 3,414 8.1 -4.7°
